Change the Weather History Date:

Tuesday, October 30, 2012

  Actual Average Record
Temperature  
Mean Temperature 47 °F -  
Max Temperature 52 °F 57 °F 80 °F (1946)
Min Temperature 41 °F 39 °F 24 °F (1965)
Degree Days  
Heating Degree Days 18    
Moisture  
Dew Point 41 °F    
Average Humidity 88    
Maximum Humidity 94    
Minimum Humidity 81    
Precipitation  
Precipitation 0.40 in - - ()
Sea Level Pressure  
Sea Level Pressure 29.19 in    
Wind  
Wind Speed 14 mph (SE)    
Max Wind Speed 25 mph    
Max Gust Speed 47 mph    
Visibility 9 miles    
Events Rain    
Averages and records for this station are not official NWS values.
T = Trace of Precipitation, MM = Missing Value Source: NWS Daily Summary

Daily Weather History Graph

Daily Weather History Graph

Search for Another Location

Airport or City:

Trip Planner

Search our weather history database for the weather conditions in past years. The results will help you decide how hot, cold, wet, or windy it might be!

Date:

Astronomy

Oct. 30, 2012 Rise Set
Actual Time 7:35 AM EDT 6:06 PM EDT
Civil Twilight 7:06 AM EDT 6:34 PM EDT
Nautical Twilight 6:34 AM EDT 7:06 PM EDT
Astronomical Twilight 6:03 AM EDT 7:38 PM EDT
Moon 6:34 PM EDT (10/30) 8:19 AM EDT (10/30)
Length of Visible Light 11h 27m
Length of Day
10h 31m
Full, 99% of the Moon is Illuminated
Oct 30
Full
Nov 6
Last Quarter
Nov 13
New
Nov 20
First Quarter
Nov 28
Full

Hourly Weather History & Observations

Time (EDT) Temp. Windchill Dew Point Humidity Pressure Visibility Wind Dir Wind Speed Gust Speed Precip Events Conditions
12:29 AM 53.6 °F - 51.8 °F 94% 28.49 in 3.0 mi NNE 23.0 mph 33.4 mph 0.07 in Rain Light Rain
12:36 AM 53.6 °F - 51.8 °F 94% 28.49 in 3.0 mi NNE 25.3 mph 47.2 mph 0.07 in Rain Light Rain
12:49 AM 53.6 °F - 50.0 °F 88% 28.50 in 2.5 mi NE 21.9 mph 34.5 mph 0.09 in Rain Rain
12:56 AM 53.1 °F - 50.0 °F 89% 28.51 in 2.5 mi NE 20.7 mph 36.8 mph 0.09 in Rain Rain
1:15 AM 51.8 °F - 48.2 °F 88% 28.51 in 3.0 mi NE 17.3 mph 32.2 mph 0.02 in Rain Light Rain
6:56 AM 41.0 °F 31.6 °F 37.9 °F 89% 29.00 in 7.0 mi ESE 20.7 mph 27.6 mph 0.07 in Rain Light Rain
7:56 AM 42.1 °F 34.2 °F 37.9 °F 85% 29.06 in 10.0 mi ESE 16.1 mph 24.2 mph 0.02 in Rain Light Rain
8:56 AM 42.1 °F 34.5 °F 39.0 °F 89% 29.12 in 10.0 mi ESE 15.0 mph - 0.02 in Rain Light Rain
9:37 AM 42.8 °F 35.4 °F 39.2 °F 87% 29.14 in 10.0 mi SE 15.0 mph - 0.00 in   Overcast
9:56 AM 43.0 °F 35.4 °F 39.0 °F 86% 29.16 in 10.0 mi ESE 16.1 mph 21.9 mph 0.00 in   Overcast
10:05 AM 42.8 °F 35.8 °F 39.2 °F 87% 29.16 in 10.0 mi SE 13.8 mph 21.9 mph N/A   Overcast
10:56 AM 43.0 °F 36.8 °F 39.0 °F 86% 29.20 in 10.0 mi SE 11.5 mph - 0.00 in Rain Light Rain
11:56 AM 44.1 °F 38.1 °F 39.9 °F 85% 29.23 in 10.0 mi SSE 11.5 mph - 0.01 in Rain Light Rain
12:56 PM 43.0 °F 37.7 °F 39.0 °F 86% 29.26 in 10.0 mi SSE 9.2 mph - 0.02 in Rain Light Rain
1:14 PM 42.8 °F 38.0 °F 39.2 °F 87% 29.26 in 10.0 mi SE 8.1 mph - 0.01 in Rain Light Rain
1:38 PM 44.6 °F 39.2 °F 39.2 °F 81% 29.27 in 9.0 mi SSE 10.4 mph - 0.03 in Rain Light Rain
1:48 PM 44.6 °F 39.7 °F 39.2 °F 81% 29.27 in 10.0 mi SE 9.2 mph - 0.04 in Rain Light Rain
1:56 PM 43.0 °F 38.2 °F 39.9 °F 89% 29.28 in 10.0 mi SE 8.1 mph - 0.04 in Rain Light Rain
2:52 PM 42.8 °F 38.0 °F 39.2 °F 87% 29.29 in 10.0 mi SSE 8.1 mph - 0.04 in Rain Light Rain
2:56 PM 43.0 °F 38.2 °F 39.0 °F 86% 29.30 in 10.0 mi SSE 8.1 mph - 0.04 in Rain Light Rain
3:56 PM 43.0 °F 38.2 °F 39.9 °F 89% 29.33 in 10.0 mi SE 8.1 mph - 0.01 in Rain Light Rain
4:09 PM 42.8 °F 38.6 °F 39.2 °F 87% 29.32 in 10.0 mi SE 6.9 mph - 0.00 in Rain Light Rain
4:56 PM 42.1 °F 39.2 °F 39.9 °F 92% 29.36 in 6.0 mi South 4.6 mph - 0.04 in Rain Light Rain
5:37 PM 42.8 °F 38.6 °F 39.2 °F 87% 29.36 in 10.0 mi South 6.9 mph - 0.00 in Rain Light Rain
5:56 PM 42.1 °F 39.2 °F 39.0 °F 89% 29.38 in 10.0 mi SSE 4.6 mph - 0.00 in Rain Light Rain
6:31 PM 42.8 °F 40.1 °F 39.2 °F 87% 29.39 in 9.0 mi South 4.6 mph - 0.01 in Rain Light Rain
6:56 PM 42.1 °F 39.2 °F 39.0 °F 89% 29.41 in 10.0 mi SE 4.6 mph - 0.01 in   Overcast
7:15 PM 42.8 °F 38.6 °F 39.2 °F 87% 29.41 in 10.0 mi ESE 6.9 mph - N/A   Overcast
7:44 PM 41.0 °F 35.8 °F 37.4 °F 87% 29.41 in 10.0 mi SE 8.1 mph - 0.00 in Rain Light Rain
7:56 PM 41.0 °F 37.1 °F 37.9 °F 89% 29.43 in 10.0 mi ESE 5.8 mph - 0.00 in Rain Light Rain
8:33 PM 41.0 °F 37.1 °F 37.4 °F 87% 29.43 in 10.0 mi SE 5.8 mph - 0.01 in Rain Light Rain
8:56 PM 41.0 °F 39.0 °F 39.0 °F 93% 29.44 in 10.0 mi SSE 3.5 mph - 0.02 in Rain Light Rain
9:04 PM 41.0 °F 37.1 °F 39.2 °F 93% 29.44 in 10.0 mi SSE 5.8 mph - 0.00 in Rain Light Rain
9:56 PM 41.0 °F - 39.0 °F 93% 29.46 in 10.0 mi Calm Calm - 0.01 in Rain Light Rain
10:56 PM 41.0 °F - 37.9 °F 89% 29.46 in 10.0 mi Calm Calm - 0.00 in Rain Light Rain